Regional Weather Roundup
Issued by NWS

Home | Current Version | Previous Version | Graphics & Text | Print | Product List | Glossary On
Versions: 1 2 3 4 5 6 7 8 9 10 11 12 13 14 15 16 17 18 19 20 21 22 23 24 25 26 27 28 29 30 31 32 33 34 35 36 37 38 39 40 41 42 43 44 45 46 47 48 49 50
000
ASUS43 KBIS 231510
RWRND
NORTH DAKOTA REGIONAL WEATHER ROUNDUP
NATIONAL WEATHER SERVICE EASTERN NORTH DAKOTA/GRAND FORKS ND
900 AM CST FRI FEB 23 2018

  NOTE: "FAIR" INDICATES FEW OR NO CLOUDS BELOW 12,000 FEET WITH NO
  SIGNIFICANT WEATHER AND/OR OBSTRUCTIONS TO VISIBILITY.

NDZ001>003-009>011-017-231600-
...NORTHWEST NORTH DAKOTA...

CITY           SKY/WX    TMP DP  RH WIND       PRES   REMARKS
WILLISTON      CLOUDY    -5 -10  79 SW8       30.24S WCI -20
MINOT          FAIR       5   1  83 SW9       30.19R WCI  -9
MINOT AFB      CLOUDY     2  -2  83 W5        30.19R WCI  -7
$$

NDZ018>021-031>035-040>046-231600-
...SOUTHWEST NORTH DAKOTA...

CITY           SKY/WX    TMP DP  RH WIND       PRES   REMARKS
BISMARCK       FAIR       6  -1  73 NW9       30.25R WCI  -8
DICKINSON      FAIR      -3 -10  72 W10       30.16R WCI -20
GARRISON         N/A      0  -4  83 W7        30.22R WCI -13
HETTINGER      FAIR      -9 -15  75 W9        30.21R WCI -26
$$

NDZ004>008-012>016-024-026-027-054-231600-
...NORTHEAST NORTH DAKOTA...

CITY           SKY/WX    TMP DP  RH WIND       PRES   REMARKS
GRAND FORKS    CLOUDY    14   7  73 NW9       30.17R WCI   2
GRAND FORKS AF SUNNY     13   4  66 NW9       30.17R WCI   0
DEVILS LAKE    FAIR      -1  -6  79 W13       30.18S WCI -19
$$

NDZ022-023-025-028>030-036>039-047>053-231600-
...SOUTHEAST NORTH DAKOTA...

CITY           SKY/WX    TMP DP  RH WIND       PRES   REMARKS
JAMESTOWN      FAIR      10   3  73 NW13      30.18R WCI  -5
FARGO          FAIR      17  14  88 NW8       30.18R WCI   7
WAHPETON       FAIR      14  10  85 NW8       30.18R WCI   3
$$




USA.gov is the U.S. government's official web portal to all federal, state and local government web resources and services.